CW0214 Weather Reports


Display with metric or nautical units.
time (UTC)temp
F
wind
direction
speed
MPH
gust
MPH
rain 1hr
in
rain 24hr
in
rain mn
in
humidity
%
barometer
mb
20260902182905 87 87 1.0 5.0 0.00 0.00 0.00 50 1019.3
20260902181905 88 129 3.0 12.0 0.00 0.00 0.00 48 1019.2
20260902181405 89 121 1.0 7.0 0.00 0.00 0.00 46 1019.2
20260902180405 92 182 1.0 7.0 0.00 0.00 0.00 35 1019.2
20260902175905 93 132 0.0 2.0 0.00 0.00 0.00 23 1019.1
20260902175405 93 132 0.0 2.0 0.00 0.00 0.00 23 1019.0
20260902174905 93 132 1.0 3.0 0.00 0.00 0.00 24 1019.0
20260902174405 93 154 1.0 7.0 0.00 0.00 0.00 24 1019.0
20260902173905 93 115 1.0 6.0 0.00 0.00 0.00 24 1019.0
20260902173405 93 138 1.0 6.0 0.00 0.00 0.00 24 1019.0
20260902172906 93 138 1.0 5.0 0.00 0.00 0.00 24 1019.0
20260902172405 93 117 0.0 5.0 0.00 0.00 0.00 25 1018.9
20260902171908 93 161 1.0 3.0 0.00 0.00 0.00 25 1019.0
20260902171405 93 162 1.0 3.0 0.00 0.00 0.00 25 1019.0
20260902170905 93 126 0.0 7.0 0.00 0.00 0.00 25 1019.1
20260902170405 93 134 0.0 2.0 0.00 0.00 0.00 25 1019.2
20260902165905 93 134 0.0 8.0 0.00 0.00 0.00 25 1019.3
20260902165405 93 132 1.0 5.0 0.00 0.00 0.00 25 1019.3
20260902164905 94 132 1.0 3.0 0.00 0.00 0.00 25 1019.3
20260902164405 94 129 1.0 7.0 0.00 0.00 0.00 27 1019.3
20260902163905 93 171 1.0 6.0 0.00 0.00 0.00 27 1019.3
20260902163405 93 151 3.0 7.0 0.00 0.00 0.00 26 1019.4
20260902162905 93 169 1.0 5.0 0.00 0.00 0.00 27 1019.4
20260902162405 93 165 1.0 5.0 0.00 0.00 0.00 27 1019.5
20260902161905 93 128 2.0 5.0 0.00 0.00 0.00 27 1019.5
20260902161405 92 194 1.0 7.0 0.00 0.00 0.00 28 1019.6
20260902160905 93 213 1.0 10.0 0.00 0.00 0.00 27 1019.5
20260902160405 93 103 0.0 3.0 0.00 0.00 0.00 28 1019.6
20260902155905 93 103 3.0 7.0 0.00 0.00 0.00 28 1019.6
20260902155406 93 196 2.0 7.0 0.00 0.00 0.00 28 1019.7
20260902154905 93 131 3.0 7.0 0.00 0.00 0.00 28 1019.7
20260902154405 93 160 3.0 7.0 0.00 0.00 0.00 28 1019.7
20260902153905 93 76 3.0 7.0 0.00 0.00 0.00 29 1019.7
20260902153405 93 213 1.0 6.0 0.00 0.00 0.00 29 1019.7
20260902152905 93 165 1.0 6.0 0.00 0.00 0.00 29 1019.7
20260902152405 93 188 3.0 7.0 0.00 0.00 0.00 29 1019.8
20260902151905 93 122 0.0 6.0 0.00 0.00 0.00 29 1019.8
20260902151405 93 120 2.0 9.0 0.00 0.00 0.00 29 1019.8
20260902150906 93 180 0.0 3.0 0.00 0.00 0.00 30 1019.7
20260902150405 93 187 1.0 3.0 0.00 0.00 0.00 30 1019.9
20260902145405 93 113 2.0 8.0 0.00 0.00 0.00 31 1019.9
20260902144905 92 144 2.0 10.0 0.00 0.00 0.00 31 1020.0
20260902144405 92 180 1.0 5.0 0.00 0.00 0.00 32 1020.0
20260902143905 92 160 3.0 8.0 0.00 0.00 0.00 31 1020.0
20260902143405 92 115 1.0 7.0 0.00 0.00 0.00 32 1020.0
20260902142905 91 112 1.0 10.0 0.00 0.00 0.00 32 1020.1
20260902142405 92 158 4.0 7.0 0.00 0.00 0.00 32 1020.1
20260902141905 92 91 4.0 8.0 0.00 0.00 0.00 32 1020.3
20260902141405 92 118 0.0 5.0 0.00 0.00 0.00 32 1020.2
20260902140905 90 169 1.0 7.0 0.00 0.00 0.00 34 1020.3
20260902140405 90 267 5.0 8.0 0.00 0.00 0.00 35 1020.4
20260902135905 91 232 1.0 3.0 0.00 0.00 0.00 34 1020.4
20260902135405 91 130 1.0 6.0 0.00 0.00 0.00 35 1020.4
20260902134405 91 135 1.0 5.0 0.00 0.00 0.00 35 1020.4
20260902133905 91 141 1.0 6.0 0.00 0.00 0.00 34 1020.5
20260902133405 91 86 1.0 7.0 0.00 0.00 0.00 32 1020.5
20260902132905 91 162 1.0 6.0 0.00 0.00 0.00 33 1020.5
20260902132405 91 139 2.0 6.0 0.00 0.00 0.00 34 1020.6
20260902131906 90 81 0.0 6.0 0.00 0.00 0.00 35 1020.5
20260902131405 89 13 1.0 5.0 0.00 0.00 0.00 36 1020.6
20260902130905 88 311 1.0 3.0 0.00 0.00 0.00 34 1020.7
20260902130405 89 51 0.0 3.0 0.00 0.00 0.00 33 1020.8
20260902125405 89 323 0.0 6.0 0.00 0.00 0.00 37 1020.8
20260902124905 88 103 0.0 0.0 0.00 0.00 0.00 37 1020.9
20260902124405 89 103 0.0 2.0 0.00 0.00 0.00 36 1020.9
20260902123905 88 103 1.0 7.0 0.00 0.00 0.00 38 1021.0
20260902123405 87 34 1.0 7.0 0.00 0.00 0.00 38 1021.1
20260902122905 87 55 0.0 1.0 0.00 0.00 0.00 40 1021.2
20260902122405 85 55 0.0 6.0 0.00 0.00 0.00 41 1021.3
20260902121905 87 24 1.0 7.0 0.00 0.00 0.00 40 1021.4
20260902120905 83 48 2.0 5.0 0.00 0.00 0.00 43 1021.5
20260902120404 83 352 3.0 10.0 0.00 0.00 0.00 44 1021.6
20260902115905 83 350 1.0 3.0 0.00 0.00 0.00 45 1021.6
20260902115405 83 19 1.0 5.0 0.00 0.00 0.00 45 1021.6
20260902114905 83 4 3.0 8.0 0.00 0.00 0.00 44 1021.7
20260902114405 82 46 0.0 9.0 0.00 0.00 0.00 44 1021.6
20260902113905 82 13 0.0 5.0 0.00 0.00 0.00 46 1021.7
20260902113405 83 19 0.0 6.0 0.00 0.00 0.00 48 1021.7
20260902112905 83 84 0.0 2.0 0.00 0.00 0.00 49 1021.7
20260902112405 82 85 0.0 1.0 0.00 0.00 0.00 51 1021.8
20260902110905 80 13 2.0 7.0 0.00 0.00 0.00 56 1021.8
20260902110405 80 203 0.0 1.0 0.00 0.00 0.00 57 1021.8
20260902105905 80 203 0.0 0.0 0.00 0.00 0.00 58 1021.8
20260902105405 79 203 0.0 1.0 0.00 0.00 0.00 61 1021.8
20260902104905 78 203 0.0 3.0 0.00 0.00 0.00 59 1021.8
20260902104405 78 203 0.0 1.0 0.00 0.00 0.00 61 1021.8
20260902103905 76 203 0.0 1.0 0.00 0.00 0.00 63 1021.8
20260902103405 76 203 2.0 6.0 0.00 0.00 0.00 63 1021.9
20260902102905 75 181 0.0 5.0 0.00 0.00 0.00 65 1021.8
20260902102405 76 181 1.0 5.0 0.00 0.00 0.00 65 1021.9
20260902101905 75 180 0.0 3.0 0.00 0.00 0.00 66 1021.9
20260902100905 74 312 0.0 1.0 0.00 0.00 0.00 66 1021.8
20260902100405 72 311 0.0 5.0 0.00 0.00 0.00 71 1021.9
20260902095905 73 27 0.0 2.0 0.00 0.00 0.00 71 1021.8
20260902095405 72 27 0.0 1.0 0.00 0.00 0.00 73 1021.9
20260902094905 72 28 0.0 1.0 0.00 0.00 0.00 74 1021.7
20260902094405 71 28 0.0 0.0 0.00 0.00 0.00 75 1021.7
20260902093905 71 28 0.0 1.0 0.00 0.00 0.00 75 1021.7
20260902093405 71 28 0.0 0.0 0.00 0.00 0.00 76 1021.8
20260902092905 70 28 0.0 0.0 0.00 0.00 0.00 78 1021.7
20260902092405 69 28 0.0 1.0 0.00 0.00 0.00 79 1021.7
20260902091405 68 213 0.0 0.0 0.00 0.00 0.00 79 1021.6
20260902090905 68 213 0.0 0.0 0.00 0.00 0.00 80 1021.5
20260902090405 67 213 0.0 0.0 0.00 0.00 0.00 83 1021.4
20260902085905 67 213 0.0 1.0 0.00 0.00 0.00 86 1021.4
20260902085405 66 213 0.0 0.0 0.00 0.00 0.00 88 1021.4
20260902084905 65 213 0.0 1.0 0.00 0.00 0.00 90 1021.4
20260902084404 65 213 0.0 3.0 0.00 0.00 0.00 91 1021.3
20260902083905 64 213 0.0 0.0 0.00 0.00 0.00 93 1021.5
20260902083405 63 213 0.0 0.0 0.00 0.00 0.00 93 1021.4
20260902082405 62 213 0.0 0.0 0.00 0.00 0.00 93 1021.4
20260902081904 62 213 0.0 5.0 0.00 0.00 0.00 93 1021.4
20260902081405 62 213 0.0 5.0 0.00 0.00 0.00 94 1021.4
20260902080905 62 213 1.0 6.0 0.00 0.00 0.00 94 1021.4
20260902080404 62 203 2.0 3.0 0.00 0.00 0.00 94 1021.4
20260902075904 62 203 0.0 0.0 0.00 0.00 0.00 94 1021.4
20260902074905 61 203 2.0 5.0 0.00 0.00 0.00 94 1021.2
20260902074405 61 203 1.0 3.0 0.00 0.00 0.00 93 1021.2
20260902073404 61 203 0.0 3.0 0.00 0.00 0.00 93 1021.1
20260902072904 60 203 0.0 5.0 0.00 0.00 0.00 93 1021.0
20260902072405 60 203 1.0 5.0 0.00 0.00 0.00 93 1020.9
20260902071905 60 203 2.0 5.0 0.00 0.00 0.00 93 1020.9
20260902071405 60 203 2.0 5.0 0.00 0.00 0.00 92 1020.9
20260902070904 61 203 3.0 5.0 0.00 0.00 0.00 93 1020.8
20260902070404 61 203 2.0 5.0 0.00 0.00 0.00 93 1020.7
20260902065905 61 203 0.0 0.0 0.00 0.00 0.00 93 1020.7
20260902065405 61 203 0.0 0.0 0.00 0.00 0.00 93 1020.6
20260902064904 61 203 0.0 0.0 0.00 0.00 0.00 93 1020.5
20260902064404 61 203 1.0 6.0 0.00 0.00 0.00 92 1020.5
20260902063905 61 118 1.0 5.0 0.00 0.00 0.00 92 1020.3
20260902063404 61 118 0.0 2.0 0.00 0.00 0.00 92 1020.3
20260902062905 61 118 0.0 2.0 0.00 0.00 0.00 92 1020.3
20260902062405 61 118 0.0 0.0 0.00 0.00 0.00 92 1020.3
20260902061905 61 118 0.0 0.0 0.00 0.00 0.00 92 1020.2
20260902060907 61 118 0.0 0.0 0.00 0.00 0.00 92 1020.2
20260902060405 62 118 0.0 0.0 0.00 0.00 0.00 92 1020.1
20260902055905 62 118 0.0 0.0 0.00 0.00 0.00 92 1020.1
20260902054905 62 118 0.0 0.0 0.00 0.00 0.00 92 1020.0
20260902054405 62 118 0.0 0.0 0.00 0.00 0.00 91 1020.0
20260902053905 62 118 0.0 0.0 0.00 0.00 0.00 91 1020.0
20260902052405 62 118 0.0 0.0 0.00 0.00 0.00 91 1020.1
20260902051405 62 118 0.0 0.0 0.00 0.00 0.00 91 1020.0
20260902050904 62 118 0.0 0.0 0.00 0.00 0.00 91 1020.0
20260902050405 62 118 0.0 1.0 0.00 0.00 0.00 91 1019.9
20260902045905 62 118 0.0 0.0 0.00 0.00 0.00 91 1019.8
20260902045405 63 118 0.0 0.0 0.00 0.00 0.00 91 1019.9
20260902044405 63 118 0.0 3.0 0.00 0.00 0.00 91 1019.8
20260902043904 63 118 0.0 2.0 0.00 0.00 0.00 91 1019.8
20260902043405 63 118 0.0 0.0 0.00 0.00 0.00 91 1019.9
20260902042905 63 118 0.0 0.0 0.00 0.00 0.00 91 1019.7
20260902042405 63 118 0.0 0.0 0.00 0.00 0.00 91 1019.8
20260902041905 63 118 0.0 3.0 0.00 0.00 0.00 90 1019.7
20260902041405 63 118 0.0 0.0 0.00 0.00 0.00 90 1019.7
20260902040905 63 118 0.0 0.0 0.00 0.00 0.00 90 1019.8
20260902040404 63 118 0.0 0.0 0.00 0.00 0.00 90 1019.8
20260902035904 63 118 0.0 3.0 0.00 0.00 0.00 90 1019.8
20260902035405 63 118 1.0 3.0 0.00 0.00 0.00 90 1019.9
20260902034905 63 118 1.0 3.0 0.00 0.00 0.00 90 1019.9
20260902034405 63 118 0.0 3.0 0.00 0.00 0.00 90 1019.9
20260902033404 63 118 0.0 0.0 0.00 0.00 0.00 90 1019.9
20260902032904 63 118 0.0 3.0 0.00 0.00 0.00 89 1020.0
20260902032405 63 118 0.0 0.0 0.00 0.00 0.00 89 1019.9
20260902031904 63 118 0.0 0.0 0.00 0.00 0.00 90 1020.1
20260902030905 63 118 0.0 3.0 0.00 0.00 0.00 89 1020.0
20260902030405 63 118 1.0 3.0 0.00 0.00 0.00 89 1020.0
20260902025904 63 118 1.0 5.0 0.00 0.00 0.00 89 1020.0
20260902025404 63 118 1.0 6.0 0.00 0.00 0.00 89 1020.1
20260902024405 63 118 0.0 3.0 0.00 0.00 0.00 89 1020.1
20260902023905 63 118 0.0 3.0 0.00 0.00 0.00 89 1020.0
20260902023405 63 118 1.0 6.0 0.00 0.00 0.00 88 1020.0
20260902021905 63 118 0.0 2.0 0.00 0.00 0.00 88 1020.1
20260902021405 64 118 1.0 6.0 0.00 0.00 0.00 88 1020.2
20260902020905 64 160 0.0 3.0 0.00 0.00 0.00 88 1020.3
20260902020405 64 161 1.0 6.0 0.00 0.00 0.00 88 1020.3
20260902015904 64 161 0.0 0.0 0.00 0.00 0.00 88 1020.3
20260902015404 64 161 0.0 2.0 0.00 0.00 0.00 88 1020.4
20260902014905 64 161 0.0 2.0 0.00 0.00 0.00 88 1020.4
20260902014404 64 161 2.0 5.0 0.00 0.00 0.00 88 1020.4
20260902013904 64 162 0.0 1.0 0.00 0.00 0.00 88 1020.5
20260902013404 64 162 0.0 0.0 0.00 0.00 0.00 88 1020.5
20260902012905 64 162 0.0 0.0 0.00 0.00 0.00 88 1020.4
20260902012404 64 162 0.0 3.0 0.00 0.00 0.00 88 1020.4
20260902011904 64 113 2.0 6.0 0.00 0.00 0.00 88 1020.4
20260902011405 64 334 2.0 6.0 0.00 0.00 0.00 88 1020.5
20260902010905 64 129 2.0 7.0 0.00 0.00 0.00 88 1020.5
20260902010404 64 130 1.0 6.0 0.00 0.00 0.00 88 1020.5
20260902005904 64 130 0.0 2.0 0.00 0.00 0.00 88 1020.5
20260902005405 64 130 1.0 3.0 0.00 0.00 0.00 88 1020.5
20260902004904 64 168 1.0 8.0 0.00 0.00 0.00 88 1020.6
20260902004404 64 139 2.0 6.0 0.00 0.00 0.00 88 1020.5
20260902003904 64 168 3.0 7.0 0.00 0.00 0.00 88 1020.6
20260902001904 64 100 0.0 6.0 0.00 0.00 0.00 88 1020.5
20260902001405 64 108 2.0 12.0 0.00 0.00 0.00 88 1020.6
20260902000905 64 120 1.0 9.0 0.00 0.00 0.00 88 1020.6
20260902000406 64 129 1.0 8.0 0.00 0.00 0.00 88 1020.5
20260901235905 64 85 0.0 9.0 0.00 0.00 0.00 88 1020.4
20260901235404 64 143 1.0 7.0 0.00 0.00 0.00 88 1020.3
20260901234905 64 106 4.0 10.0 0.00 0.00 0.00 88 1020.2
20260901233904 64 137 3.0 13.0 0.00 0.00 0.00 87 1020.2
20260901233404 64 109 3.0 10.0 0.00 0.00 0.00 87 1020.2
20260901232904 64 153 3.0 12.0 0.00 0.00 0.00 87 1020.3
20260901232404 64 102 3.0 8.0 0.00 0.00 0.00 87 1020.4
20260901231905 64 134 5.0 8.0 0.00 0.00 0.00 86 1020.4
20260901231404 64 117 3.0 8.0 0.00 0.00 0.00 86 1020.3
20260901230904 65 132 5.0 9.0 0.00 0.00 0.00 85 1020.4
20260901230404 65 114 5.0 12.0 0.00 0.00 0.00 85 1020.4
20260901225904 65 123 2.0 10.0 0.00 0.00 0.00 85 1020.4
20260901225404 65 131 5.0 10.0 0.00 0.00 0.00 84 1020.3
20260901224404 65 109 1.0 8.0 0.00 0.00 0.00 84 1020.4
20260901223905 65 113 5.0 10.0 0.00 0.00 0.00 84 1020.4
20260901222904 66 128 4.0 10.0 0.00 0.00 0.00 83 1020.6
20260901222405 66 155 3.0 7.0 0.00 0.00 0.00 83 1020.5
20260901221904 66 116 2.0 7.0 0.00 0.00 0.00 82 1020.4
20260901221405 66 131 3.0 9.0 0.00 0.00 0.00 82 1020.4
20260901220905 66 137 4.0 9.0 0.00 0.00 0.00 82 1020.4
20260901220404 66 116 6.0 9.0 0.00 0.00 0.00 81 1020.5
20260901215404 66 130 4.0 10.0 0.00 0.00 0.00 81 1020.4
20260901214904 66 124 1.0 10.0 0.00 0.00 0.00 80 1020.5
20260901214404 67 117 3.0 9.0 0.00 0.00 0.00 80 1020.6
20260901213904 67 114 1.0 7.0 0.00 0.00 0.00 79 1020.4
20260901213404 67 138 3.0 10.0 0.00 0.00 0.00 79 1020.5
20260901212905 67 30 3.0 9.0 0.00 0.00 0.00 79 1020.6
20260901212405 67 138 1.0 6.0 0.00 0.00 0.00 78 1020.5
20260901211905 67 113 1.0 7.0 0.00 0.00 0.00 78 1020.5
20260901211405 67 108 2.0 10.0 0.00 0.00 0.00 77 1020.4
20260901210907 68 162 3.0 10.0 0.00 0.00 0.00 76 1020.3
20260901210405 68 167 2.0 9.0 0.00 0.00 0.00 76 1020.3
20260901205905 68 122 1.0 7.0 0.00 0.00 0.00 75 1020.2
20260901205404 68 155 2.0 9.0 0.00 0.00 0.00 74 1020.1
20260901204904 68 104 3.0 9.0 0.00 0.00 0.00 74 1020.1
20260901204404 69 135 1.0 8.0 0.00 0.00 0.00 73 1020.1
20260901203905 69 167 2.0 12.0 0.00 0.00 0.00 73 1020.0
20260901203404 69 137 2.0 12.0 0.00 0.00 0.00 72 1020.0
20260901202905 69 134 1.0 10.0 0.00 0.00 0.00 71 1020.0
20260901202405 69 128 5.0 10.0 0.00 0.00 0.00 71 1020.0
20260901201904 70 143 2.0 9.0 0.00 0.00 0.00 70 1020.0
20260901200404 70 167 2.0 9.0 0.00 0.00 0.00 68 1019.8
20260901195404 70 97 2.0 8.0 0.00 0.00 0.00 67 1019.6
20260901194904 71 62 1.0 6.0 0.00 0.00 0.00 67 1019.5
20260901194404 71 133 1.0 7.0 0.00 0.00 0.00 67 1019.4
20260901193904 71 86 2.0 8.0 0.00 0.00 0.00 66 1019.4
20260901193404 71 101 1.0 12.0 0.00 0.00 0.00 66 1019.4
20260901192906 72 65 3.0 10.0 0.00 0.00 0.00 66 1019.4
20260901192405 72 170 1.0 12.0 0.00 0.00 0.00 65 1019.4
20260901191905 72 126 3.0 12.0 0.00 0.00 0.00 64 1019.4
20260901191405 72 109 1.0 7.0 0.00 0.00 0.00 64 1019.4
20260901190905 73 115 2.0 10.0 0.00 0.00 0.00 64 1019.3
20260901190405 73 79 0.0 7.0 0.00 0.00 0.00 63 1019.4
20260901185906 73 111 3.0 13.0 0.00 0.00 0.00 62 1019.3
20260901185405 74 147 1.0 7.0 0.00 0.00 0.00 63 1019.3
20260901184406 74 121 1.0 12.0 0.00 0.00 0.00 61 1019.1
20260901183905 75 153 0.0 13.0 0.00 0.00 0.00 61 1019.1
20260901183405 75 105 1.0 9.0 0.00 0.00 0.00 61 1019.0